Regional Weather Roundup
Issued by NWS Goodland, KS

Home | Current Version | Previous Version | Text Only | Print | Product List | Glossary Off
Versions: 1 2 3 4 5 6 7 8 9 10 11 12 13 14 15 16 17 18 19 20 21 22 23 24 25 26 27 28 29 30 31 32 33 34 35 36 37 38 39 40 41 42 43 44 45 46 47 48 49 50

306
ASUS43 KGLD 240059
RWRGLD

GOODLAND FORECAST AREA HOURLY WEATHER ROUNDUP
NATIONAL WEATHER SERVICE GOODLAND KS
700 PM MDT SAT SEP 23 2017

...OFFICIAL OBSERVATIONS...

CITY           SKY/WX    TMP DP  RH WIND       PRES   REMARKS
GOODLAND KS    RAIN      57  57 100 N3        29.90R FOG
HILL CITY KS   CLOUDY    71  61  70 N9        29.84S
IMPERIAL NEB   RAIN      54  52  93 N8        29.92R
MCCOOK NEB     CLOUDY    59  58  96 N5        29.87R
AKRON CO       FOG       48  47  96 N17       29.92S VSB 1/2
BURLINGTON CO  LGT RAIN  57  56  96 E9        29.89F
LIMON CO         N/A    N/A N/A N/A MISG      29.89R
$$

...UNOFFICIAL OBSERVATIONS...

CITY           SKY/WX    TMP DP  RH WIND       PRES   REMARKS
LENORA KS        N/A     64  32  30 MISG        N/A
NORTON KS      LGT RAIN  63  57  82 NE12      29.85S
SHARON SPRINGS   N/A     59  58  95 CALM        N/A
KIT CARSON CO    N/A     59  56  88 MISG        N/A
YUMA CO        LGT RAIN  52  52 100 NE9       29.89S
$$




USA.gov is the U.S. government's official web portal to all federal, state and local government web resources and services.